Weather in Mikhaylovka

Russia / Novosibirsk Oblast     55°35′22″N   79°21′12″E
temp.,
°C
wind,
m/s
gust,
m/s
humid.,
%
clouds,
%
prec.,
mm/h
press.,
hPa
HPBL,
m
3 march, wed
wed301:00−16ssw239694 0.2 101645
04:00−17ssw339781 0.1 101572
07:00−19ssw339880 0.1 101642
10:00−17ssw359682 0.1 1016160
13:00−14ssw469479 0.1 1017291
16:00−12ssw5893100 0.0 1017387
19:00−12ssw51194100 0.1 1017426
22:00−15ssw71593100 0.0 1017432
4 march, thu
thu401:00−13ssw71393100 0.1 1016522
04:00−11ssw71394100 0.5 1014529
07:00−9ssw71393100 1.1 1014527
10:00−8ssw81593100 0.7 1013547
13:00−5ssw81493100 1.3 1012654
16:00−4ssw91492100 0.3 1011756
19:00−4ssw91694100 0.6 1010794
22:00−3ssw91690100 0.9 1009749
5 march, fri
fri501:00−4ssw91594100 1.1 1007746
04:00−3ssw81594100 0.8 1005757
07:00−4ssw81595100 1.8 1004679
10:00−3sw81395100 1.1 1005781
13:00−6wsw8139299 1.3 1008594
16:00−6sw81386100 0.1 1010722
19:00−7sw91493100 0.6 10121046
22:00−6sw81492100 0.4 1013840
6 march, sat
sat601:00−7sw81591100 0.5 1014561
04:00−7sw71492100 0.1 1013496
07:00−4ssw71395100 0.8 1013703
10:00−4ssw91593100 1.2 1011830
13:00−5ssw101594100 2.4 1009899
16:00−4ssw101694100 1.5 10071022
19:00−3sw101794100 2.7 10051066
22:00−2sw111890100 0.3 10041253
7 march, sun
sun701:00−5wsw9168893 0.4 1007794
04:00−10wsw8168675 0.1 1010466
07:00−14wsw6149353 0.1 1014353
10:00−16sw5109486 0.0 1015262
13:00−12sw589191 0.0 1016326
16:00−10s588799 0.0 1015352
19:00−8sse6129499 0.1 1012503
22:00−3ssw81494100 0.7 1009782